sat.trackr.live / text

‹ back to catalog

STARLINK-3111

NORAD 49418 · 2021-104L

PAYLOAD ACTIVE UNKNOWN

§ Identity

Operator
Country
US
Launch date
2021-11-13
Launch site
AFETR
Launch vehicle
Mass (kg)
RCS (m²)

Purposes: comms

External: N2YO · Heavens-Above · Gunter

§ Orbital elements

Epoch: 2026-09-11T23:13:04.179072Z

Period
93.90 min
Inclination
53.1587°
Eccentricity
0.0001262
Mean motion
15.33549484 rev/d
Perigee alt
464.4 km
Apogee alt
466.1 km
Semi-major
6,843.4 km
B*
5.4560e-5
RAAN
101.7140°
Arg perigee
84.7932°
Mean anomaly
275.3214°
Rev number
26,689

§ Raw data

STARLINK-31111 49418U 21104L   26254.96740948  .00001422  00000+0  54560-4 0  99922 49418  53.1587 101.7140 0001262  84.7932 275.3214 15.33549484266896

JSON: /api/v1/satellites/49418 · /tle

For live sub-satellite position, see the globe view (requires WebGL).

§ Visibility from observer

Set your observer location to see the next 7 days of passes ≥ 10°. The values pass through the URL so the page stays shareable.

No JS? Fill the form by hand. The geolocation button needs JavaScript.